• In Uzbekistan
  • List of Countries
  • For 7 days
  • Water Temperature
  • Satellite Maps
  • Weather Map
  • Weather Widgets
  • user-avatar
    Login

    Hourly Weather Innsbruck

    Today, 23 July, Tuesday

    Time Temperature Precipitation Wind Pressure Humidity
    00:00 +9°C° 0 mm 0 mps 603 mmHg 92%
    01:00 +8°C° 0 mm 0 mps 603 mmHg 92%
    02:00 +8°C° 0 mm 0 mps 602 mmHg 92%
    03:00 +9°C° 0 mm 1 mps 602 mmHg 92%
    04:00 +9°C° 0 mm 1 mps 602 mmHg 92%
    05:00 +10°C° 0 mm 0 mps 603 mmHg 84%
    06:00 +12°C° 0 mm 0 mps 603 mmHg 77%
    07:00 +14°C° 0 mm 0 mps 604 mmHg 70%
    08:00 +16°C° 0 mm 0 mps 605 mmHg 60%
    09:00 +20°C° 0 mm 1 mps 606 mmHg 50%
    10:00 +22°C° 0 mm 1 mps 607 mmHg 40%
    11:00 +23°C° 0 mm 1 mps 607 mmHg 38%
    12:00 +24°C° 0 mm 2 mps 607 mmHg 36%
    13:00 +24°C° 0 mm 2 mps 607 mmHg 34%
    14:00 +24°C° 0 mm 2 mps 607 mmHg 36%
    15:00 +24°C° 0 mm 2 mps 607 mmHg 38%
    16:00 +24°C° 0 mm 2 mps 606 mmHg 39%
    17:00 +21°C° 0 mm 2 mps 606 mmHg 50%
    18:00 +20°C° 0 mm 2 mps 605 mmHg 60%
    19:00 +19°C° 0 mm 1 mps 604 mmHg 70%
    20:00 +16°C° 0 mm 1 mps 603 mmHg 76%
    21:00 +14°C° 0 mm 1 mps 602 mmHg 81%
    22:00 +11°C° 0 mm 0 mps 602 mmHg 87%
    23:00 +12°C° 0 mm 1 mps 601 mmHg 86%

    Tomorrow, 24 July, Wednesday

    Time Temperature Precipitation Wind Pressure Humidity
    00:00 +12°C° 0 mm 1 mps 601 mmHg 84%
    01:00 +11°C° 0 mm 1 mps 601 mmHg 83%
    02:00 +11°C° 0 mm 1 mps 601 mmHg 83%
    03:00 +11°C° 0 mm 1 mps 601 mmHg 83%
    04:00 +11°C° 0 mm 1 mps 600 mmHg 83%
    05:00 +13°C° 0 mm 1 mps 601 mmHg 77%
    06:00 +14°C° 0 mm 0 mps 602 mmHg 72%
    07:00 +16°C° 0 mm 0 mps 603 mmHg 66%
    08:00 +20°C° 0 mm 1 mps 604 mmHg 60%
    09:00 +22°C° 0 mm 1 mps 605 mmHg 53%
    10:00 +24°C° 0 mm 1 mps 606 mmHg 46%
    11:00 +25°C° 0 mm 1 mps 606 mmHg 43%
    12:00 +25°C° 0 mm 2 mps 606 mmHg 40%
    13:00 +26°C° 0 mm 2 mps 606 mmHg 37%
    14:00 +25°C° 0.1 mm 2 mps 605 mmHg 39%
    15:00 +25°C° 0.1 mm 2 mps 605 mmHg 41%
    16:00 +24°C° 0.1 mm 2 mps 605 mmHg 44%
    17:00 +23°C° 0.4 mm 2 mps 604 mmHg 54%
    18:00 +21°C° 0.4 mm 1 mps 604 mmHg 64%
    19:00 +19°C° 0.4 mm 1 mps 603 mmHg 74%
    20:00 +18°C° 0.8 mm 1 mps 602 mmHg 79%
    21:00 +15°C° 0.8 mm 1 mps 602 mmHg 84%
    22:00 +12°C° 0.8 mm 0 mps 601 mmHg 89%
    23:00 +12°C° 0.3 mm 0 mps 601 mmHg 89%

    Day after tomorrow, 25 July, Thursday

    Time Temperature Precipitation Wind Pressure Humidity
    00:00 +12°C° 0.3 mm 0 mps 601 mmHg 89%
    01:00 +12°C° 0.3 mm 1 mps 601 mmHg 89%
    02:00 +12°C° 0 mm 1 mps 601 mmHg 89%
    03:00 +12°C° 0 mm 1 mps 600 mmHg 89%
    04:00 +11°C° 0 mm 1 mps 600 mmHg 89%
    05:00 +12°C° 0 mm 0 mps 601 mmHg 85%
    06:00 +14°C° 0 mm 0 mps 602 mmHg 80%
    07:00 +16°C° 0 mm 0 mps 603 mmHg 76%
    08:00 +18°C° 0 mm 0 mps 603 mmHg 67%
    09:00 +22°C° 0 mm 1 mps 604 mmHg 59%
    10:00 +24°C° 0 mm 1 mps 605 mmHg 50%
    11:00 +25°C° 0.3 mm 1 mps 605 mmHg 48%
    12:00 +25°C° 0.3 mm 1 mps 605 mmHg 46%
    13:00 +26°C° 0.3 mm 1 mps 605 mmHg 44%
    14:00 +25°C° 0.8 mm 1 mps 605 mmHg 46%
    15:00 +24°C° 0.8 mm 1 mps 604 mmHg 47%
    16:00 +24°C° 0.8 mm 1 mps 604 mmHg 49%
    17:00 +22°C° 0.5 mm 1 mps 603 mmHg 58%
    18:00 +21°C° 0.5 mm 1 mps 603 mmHg 68%
    19:00 +19°C° 0.5 mm 1 mps 602 mmHg 78%
    20:00 +18°C° 0.7 mm 1 mps 601 mmHg 81%
    21:00 +15°C° 0.7 mm 1 mps 601 mmHg 83%
    22:00 +14°C° 0.7 mm 1 mps 600 mmHg 86%
    23:00 +13°C° 0 mm 1 mps 600 mmHg 86%

    26 July, Friday

    Time Temperature Precipitation Wind Pressure Humidity
    00:00 +13°C° 0 mm 1 mps 599 mmHg 86%
    01:00 +12°C° 0 mm 1 mps 599 mmHg 86%
    02:00 +12°C° 0 mm 1 mps 599 mmHg 86%
    03:00 +11°C° 0 mm 1 mps 598 mmHg 85%
    04:00 +11°C° 0 mm 1 mps 598 mmHg 85%
    05:00 +13°C° 0 mm 1 mps 599 mmHg 82%
    06:00 +14°C° 0 mm 1 mps 599 mmHg 78%
    07:00 +15°C° 0 mm 0 mps 600 mmHg 75%
    08:00 +19°C° 0.2 mm 1 mps 600 mmHg 69%
    09:00 +20°C° 0.2 mm 1 mps 601 mmHg 64%
    10:00 +22°C° 0.2 mm 1 mps 601 mmHg 58%
    11:00 +23°C° 0.4 mm 1 mps 601 mmHg 54%
    12:00 +23°C° 0.4 mm 1 mps 601 mmHg 49%
    13:00 +24°C° 0.4 mm 2 mps 601 mmHg 45%
    14:00 +23°C° 0.6 mm 1 mps 601 mmHg 47%
    15:00 +23°C° 0.6 mm 1 mps 600 mmHg 50%
    16:00 +22°C° 0.6 mm 1 mps 600 mmHg 52%
    17:00 +20°C° 1 mm 1 mps 599 mmHg 63%
    18:00 +19°C° 1 mm 1 mps 598 mmHg 74%
    19:00 +16°C° 1 mm 1 mps 598 mmHg 84%
    20:00 +15°C° 0.4 mm 1 mps 597 mmHg 86%
    21:00 +13°C° 0.4 mm 1 mps 596 mmHg 87%
    22:00 +11°C° 0.4 mm 0 mps 596 mmHg 89%
    23:00 +11°C° 0 mm 1 mps 595 mmHg 88%

    27 July, Saturday

    Time Temperature Precipitation Wind Pressure Humidity
    00:00 +11°C° 0 mm 1 mps 595 mmHg 87%
    01:00 +10°C° 0 mm 1 mps 595 mmHg 87%
    02:00 +10°C° 0 mm 1 mps 594 mmHg 87%
    03:00 +10°C° 0 mm 1 mps 594 mmHg 87%
    04:00 +9°C° 0 mm 1 mps 593 mmHg 87%
    05:00 +10°C° 0 mm 0 mps 594 mmHg 83%
    06:00 +12°C° 0 mm 0 mps 595 mmHg 79%
    07:00 +13°C° 0 mm 0 mps 596 mmHg 75%
    08:00 +15°C° 0 mm 0 mps 597 mmHg 66%
    09:00 +19°C° 0 mm 1 mps 597 mmHg 57%
    10:00 +22°C° 0 mm 1 mps 598 mmHg 48%
    11:00 +22°C° 0.1 mm 1 mps 598 mmHg 46%
    12:00 +23°C° 0.1 mm 1 mps 598 mmHg 44%
    13:00 +23°C° 0.1 mm 1 mps 598 mmHg 42%
    14:00 +21°C° 0.8 mm 2 mps 598 mmHg 48%
    15:00 +20°C° 0.8 mm 2 mps 597 mmHg 55%
    16:00 +19°C° 0.8 mm 2 mps 596 mmHg 62%
    17:00 +17°C° 1.5 mm 2 mps 596 mmHg 70%
    18:00 +16°C° 1.5 mm 1 mps 595 mmHg 78%
    19:00 +14°C° 1.5 mm 1 mps 594 mmHg 86%
    20:00 +13°C° 0.5 mm 1 mps 594 mmHg 87%
    21:00 +12°C° 0.5 mm 1 mps 594 mmHg 88%
    22:00 +11°C° 0.5 mm 1 mps 593 mmHg 89%
    23:00 +11°C° 0 mm 1 mps 593 mmHg 88%

    28 July, Sunday

    Time Temperature Precipitation Wind Pressure Humidity
    00:00 +10°C° 0 mm 1 mps 593 mmHg 88%
    01:00 +10°C° 0 mm 1 mps 592 mmHg 88%
    02:00 +10°C° 0 mm 1 mps 592 mmHg 88%
    03:00 +9°C° 0 mm 1 mps 592 mmHg 88%
    04:00 +9°C° 0 mm 1 mps 592 mmHg 88%
    05:00 +10°C° 0 mm 1 mps 592 mmHg 85%
    06:00 +12°C° 0 mm 1 mps 593 mmHg 83%
    07:00 +13°C° 0 mm 1 mps 594 mmHg 80%
    08:00 +14°C° 0.1 mm 1 mps 595 mmHg 73%
    09:00 +16°C° 0.1 mm 1 mps 595 mmHg 67%
    10:00 +18°C° 0.1 mm 2 mps 596 mmHg 60%
    11:00 +17°C° 1 mm 2 mps 596 mmHg 67%
    12:00 +17°C° 1 mm 2 mps 595 mmHg 73%
    13:00 +16°C° 1 mm 2 mps 595 mmHg 79%
    14:00 +16°C° 1 mm 2 mps 595 mmHg 80%
    15:00 +16°C° 1 mm 2 mps 595 mmHg 80%
    16:00 +16°C° 1 mm 2 mps 595 mmHg 81%
    17:00 +15°C° 0.4 mm 2 mps 595 mmHg 84%
    18:00 +14°C° 0.4 mm 2 mps 595 mmHg 88%
    19:00 +13°C° 0.4 mm 1 mps 595 mmHg 92%
    20:00 +12°C° 0.1 mm 1 mps 595 mmHg 93%
    21:00 +11°C° 0.1 mm 1 mps 594 mmHg 95%
    22:00 +9°C° 0.1 mm 1 mps 594 mmHg 96%
    23:00 +9°C° 0 mm 1 mps 594 mmHg 96%
    Show more